Zurück zum Katalog

COSMOS 928

AktivNavigationPO
NORAD 10141·PAYLOAD·🇷🇺 Russia

Gestartet Jul 13, 1977 von Plesetsk Cosmodrome

Loading…

Nächste Überflüge (nächste 24 Stunden)

TLE

AktuellSource: Space-Track

Epoche: Sep 14, 2026, 11:06 UTC

1 10141U 77064A   26257.46319360  .00000049  00000-0  33380-4 0  9999
2 10141  82.9627  71.8625 0039110 114.5568 245.9674 13.76912965469786

Verfolge COSMOS 928 in Echtzeit mit AllMySat

Download on the App Store